Greenville/Spartanburg, SC

10:31 PM EDT on October 16, 2017 (GMT -0400)
Greenville-Spartanburg International

Weather History for KGSP - May, 2014

Change the Weather History Date:

Sunday, May 25, 2014

  Actual Average Record
Temperature  
Mean Temperature 71 °F 71 °F  
Max Temperature 80 °F 83 °F 96 °F (1962)
Min Temperature 61 °F 60 °F 46 °F (2005)
Degree Days  
Heating Degree Days 0 1  
Month to date heating degree days 36 38  
Since 1 July heating degree days 3208 3044  
Cooling Degree Days 6 7  
Month to date cooling degree days 149 108  
Year to date cooling degree days 191 156  
Growing Degree Days 20 (Base 50)    
Moisture  
Dew Point 62 °F    
Average Humidity 80    
Maximum Humidity 100    
Minimum Humidity 60    
Precipitation  
Precipitation 0.15 in 0.12 in 1.51 in (1951)
Month to date precipitation 2.53 3.02  
Year to date precipitation 17.91 18.69  
Snow  
Snow 0.00 in 0.00 in 0.00 in ()
Month to date snowfall 0.0 0.0  
Since 1 July snowfall 7.2 4.7  
Snow Depth 0.00 in    
Sea Level Pressure  
Sea Level Pressure 30.13 in    
Wind  
Wind Speed 3 mph (East)    
Max Wind Speed 16 mph    
Max Gust Speed 20 mph    
Visibility 10 miles    
Events Rain , Thunderstorm    
T = Trace of Precipitation, MM = Missing Value Source: NWS Daily Summary

Daily Weather History Graph

Daily Weather History Graph

Search for Another Location

Airport or City:

Trip Planner

Search our weather history database for the weather conditions in past years. The results will help you decide how hot, cold, wet, or windy it might be!

Date:

Astronomy

May. 25, 2014 Rise Set
Actual Time 6:19 AM EDT 8:32 PM EDT
Civil Twilight 5:50 AM EDT 9:01 PM EDT
Nautical Twilight 5:15 AM EDT 9:36 PM EDT
Astronomical Twilight 4:37 AM EDT 10:15 PM EDT
Moon 4:14 AM EDT (5/25) 5:38 PM EDT (5/25)
Length of Visible Light 15h 11m
Length of Day
14h 13m
Waning Crescent, 10% of the Moon is Illuminated
May 25
Waning Crescent
May 28
New
Jun 5
First Quarter
Jun 13
Full
Jun 19
Last Quarter

Hourly Weather History & Observations

Time (EDT) Temp. Dew Point Humidity Pressure Visibility Wind Dir Wind Speed Gust Speed Precip Events Conditions
12:53 AM 64.9 °F 64.0 °F 97% 30.08 in 10.0 mi NNE 3.5 mph - N/A   Partly Cloudy
1:53 AM 64.4 °F 64.4 °F 100% 30.11 in 10.0 mi Calm Calm - N/A   Clear
2:53 AM 64.9 °F 63.0 °F 93% 30.08 in 10.0 mi Calm Calm - N/A   Mostly Cloudy
3:53 AM 63.0 °F 61.0 °F 93% 30.08 in 10.0 mi Calm Calm - N/A   Partly Cloudy
4:53 AM 64.4 °F 60.8 °F 88% 30.12 in 10.0 mi Calm Calm - N/A   Mostly Cloudy
5:53 AM 63.0 °F 60.1 °F 90% 30.10 in 10.0 mi North 3.5 mph - N/A   Scattered Clouds
6:53 AM 62.1 °F 57.9 °F 86% 30.12 in 10.0 mi North 3.5 mph - N/A   Mostly Cloudy
7:53 AM 64.0 °F 57.0 °F 78% 30.14 in 10.0 mi Calm Calm - N/A   Overcast
8:53 AM 69.1 °F 59.0 °F 70% 30.15 in 10.0 mi NNE 5.8 mph - N/A   Partly Cloudy
9:53 AM 70.0 °F 57.9 °F 65% 30.17 in 10.0 mi ENE 4.6 mph - N/A   Overcast
10:53 AM 73.4 °F 60.8 °F 65% 30.18 in 10.0 mi Variable 4.6 mph - N/A   Mostly Cloudy
11:53 AM 73.9 °F 61.0 °F 64% 30.16 in 10.0 mi SE 6.9 mph - N/A   Scattered Clouds
12:53 PM 77.0 °F 63.0 °F 62% 30.14 in 10.0 mi South 9.2 mph - N/A   Scattered Clouds
1:53 PM 77.0 °F 64.0 °F 64% 30.13 in 10.0 mi Variable 3.5 mph - N/A   Mostly Cloudy
2:53 PM 79.0 °F 64.0 °F 60% 30.12 in 10.0 mi North - - N/A   Partly Cloudy
3:53 PM 79.0 °F 64.9 °F 62% 30.10 in 10.0 mi South 4.6 mph - N/A   Clear
4:46 PM 77.0 °F 64.0 °F 64% 30.13 in 10.0 mi ENE 3.5 mph - N/A Thunderstorm Mostly Cloudy
4:53 PM 75.9 °F 66.0 °F 71% 30.10 in 10.0 mi NNE 4.6 mph - 0.00 in Rain , Thunderstorm Light Rain
5:46 PM 68.0 °F 64.0 °F 87% 30.15 in 7.0 mi West 4.6 mph - 0.05 in Rain , Thunderstorm Heavy Thunderstorms and Rain
5:53 PM 68.0 °F 64.0 °F 87% 30.13 in 8.0 mi Calm Calm - 0.07 in Rain , Thunderstorm Light Thunderstorms and Rain
6:17 PM 66.0 °F 64.0 °F 93% 30.17 in 10.0 mi WSW 5.8 mph - 0.05 in Rain , Thunderstorm Light Rain
6:44 PM 64.9 °F 62.1 °F 90% 30.14 in 10.0 mi SSW 16.1 mph - 0.08 in Rain Light Rain
6:53 PM 64.9 °F 62.1 °F 90% 30.11 in 10.0 mi South 10.4 mph - 0.08 in Rain Light Rain
7:53 PM 64.0 °F 62.1 °F 93% 30.12 in 10.0 mi Calm Calm - 0.00 in   Clear
8:53 PM 64.0 °F 62.1 °F 93% 30.13 in 10.0 mi Calm Calm - N/A   Clear
9:53 PM 64.0 °F 62.1 °F 93% 30.14 in 10.0 mi Calm Calm - N/A   Clear
10:53 PM 63.0 °F 62.1 °F 97% 30.17 in 10.0 mi SSE 3.5 mph - N/A   Clear
11:53 PM 62.1 °F 61.0 °F 96% 30.17 in 10.0 mi Calm Calm - N/A   Clear